Pasco, WA

3:51 AM PST on February 09, 2016 (GMT -0800)
Tri-Cities

Weather History for KPSC - December, 2013

Change the Weather History Date:

Tuesday, December 3, 2013

  Actual Average Record
Temperature  
Mean Temperature 27 °F 35 °F  
Max Temperature 36 °F 42 °F 67 °F (2007)
Min Temperature 17 °F 28 °F 16 °F (2011)
Degree Days  
Heating Degree Days 38 30  
Month to date heating degree days 80 88  
Since 1 July heating degree days 1430 1317  
Cooling Degree Days 0 0  
Month to date cooling degree days 0 0  
Year to date cooling degree days 995 710  
Moisture  
Dew Point 14 °F    
Average Humidity 60    
Maximum Humidity 85    
Minimum Humidity 35    
Precipitation  
Precipitation T in 0.03 in 0.22 in (1982)
Month to date precipitation 0.05 0.09  
Year to date precipitation 4.80 7.71  
Snow  
Snow T in - - ()
Snow Depth 0.00 in    
Sea Level Pressure  
Sea Level Pressure 30.21 in    
Wind  
Wind Speed 14 mph (North)    
Max Wind Speed 24 mph    
Max Gust Speed 31 mph    
Visibility 10 miles    
Events Snow    
T = Trace of Precipitation, MM = Missing Value Source: NWS Daily Summary

Daily Weather History Graph

Daily Weather History Graph

Search for Another Location

Airport or City:

Trip Planner

Search our weather history database for the weather conditions in past years. The results will help you decide how hot, cold, wet, or windy it might be!

Date:

Astronomy

Dec. 03, 2013 Rise Set
Actual Time 7:21 AM PST 4:11 PM PST
Civil Twilight 6:47 AM PST 4:45 PM PST
Nautical Twilight 6:09 AM PST 5:23 PM PST
Astronomical Twilight 5:33 AM PST 5:59 PM PST
Moon 7:54 AM PST (12/3) 5:21 PM PST (12/3)
Length of Visible Light 9h 58m
Length of Day
8h 49m
New Moon, 1% of the Moon is Illuminated
Dec 3
New Moon
Dec 9
First Quarter
Dec 17
Full
Dec 25
Last Quarter
Jan 1
New

Hourly Weather History & Observations

Time (PST) Temp. Windchill Dew Point Humidity Pressure Visibility Wind Dir Wind Speed Gust Speed Precip Events Conditions
12:53 AM 33.1 °F 23.4 °F 15.1 °F 48% 30.05 in 10.0 mi NNW 13.8 mph - N/A   Overcast
1:53 AM 32.0 °F 20.5 °F 16.0 °F 52% 30.06 in 10.0 mi NW 18.4 mph - N/A   Overcast
2:53 AM 30.0 °F 18.3 °F 21.9 °F 72% 30.07 in 10.0 mi WNW 17.3 mph - N/A   Unknown
3:53 AM 30.0 °F 16.9 °F 23.0 °F 75% 30.07 in 10.0 mi NW 21.9 mph 29.9 mph N/A   Overcast
4:53 AM 30.0 °F 17.5 °F 24.1 °F 79% 30.10 in 4.0 mi NNW 19.6 mph - 0.00 in Snow Light Snow
5:53 AM 30.0 °F 20.5 °F 26.1 °F 85% 30.14 in 8.0 mi North 11.5 mph - 0.00 in Snow Light Snow
6:53 AM 28.9 °F 18.2 °F 23.0 °F 78% 30.16 in 10.0 mi NW 13.8 mph - 0.00 in   Mostly Cloudy
7:53 AM 28.0 °F 14.6 °F 16.0 °F 61% 30.17 in 10.0 mi NNW 20.7 mph - N/A   Partly Cloudy
8:53 AM 27.0 °F 14.3 °F 15.1 °F 61% 30.19 in 10.0 mi NNW 17.3 mph - N/A   Clear
9:53 AM 32.0 °F 20.8 °F 14.0 °F 48% 30.22 in 10.0 mi North 17.3 mph - N/A   Clear
10:53 AM 33.1 °F 23.0 °F 12.0 °F 42% 30.22 in 10.0 mi NE 15.0 mph - N/A   Mostly Cloudy
11:53 AM 34.0 °F 23.4 °F 10.9 °F 38% 30.22 in 10.0 mi NNE 17.3 mph 24.2 mph N/A   Overcast
12:53 PM 35.1 °F 25.2 °F 10.0 °F 35% 30.22 in 10.0 mi NE 16.1 mph - N/A   Mostly Cloudy
1:53 PM 36.0 °F 28.5 °F 10.0 °F 34% 30.23 in 10.0 mi ENE 10.4 mph - N/A   Scattered Clouds
2:53 PM 35.1 °F 26.9 °F 10.9 °F 37% 30.24 in 10.0 mi NE 11.5 mph - N/A   Scattered Clouds
3:53 PM 33.1 °F 28.7 °F 10.9 °F 40% 30.25 in 10.0 mi NNE 4.6 mph - N/A   Scattered Clouds
4:53 PM 28.0 °F 20.8 °F 10.0 °F 47% 30.27 in 10.0 mi NE 6.9 mph - N/A   Partly Cloudy
5:53 PM 19.9 °F 13.4 °F 12.0 °F 71% 30.28 in 10.0 mi NNW 4.6 mph - N/A   Scattered Clouds
6:53 PM 19.9 °F 11.1 °F 10.9 °F 68% 30.29 in 10.0 mi North 6.9 mph - N/A   Scattered Clouds
7:53 PM 19.0 °F 7.5 °F 10.9 °F 71% 30.29 in 10.0 mi North 10.4 mph - N/A   Clear
8:53 PM 19.0 °F 7.5 °F 10.9 °F 71% 30.30 in 10.0 mi North 10.4 mph - N/A   Clear
9:53 PM 19.0 °F 8.2 °F 10.0 °F 68% 30.31 in 10.0 mi North 9.2 mph - N/A   Clear
10:53 PM 18.0 °F - 9.0 °F 68% 30.32 in 10.0 mi Calm Calm - N/A   Clear
11:53 PM 17.1 °F 11.7 °F 9.0 °F 71% 30.33 in 10.0 mi NNW 3.5 mph - N/A   Clear